104  
ASUS43 KTOP 181808  
RWRKS  
 
WEATHER ROUNDUP FOR KANSAS  
NATIONAL WEATHER SERVICE GOODLAND KS  
100 PM CDT FRI AUG 18 2017  
 
NOTE: "FAIR" INDICATES FEW OR NO CLOUDS BELOW 12,000 FEET WITH NO  
SIGNIFICANT WEATHER AND/OR S TO VISIBILITY
.  
 
KSZ001>006-013>018-027>032-041>047-181900-  
NORTHWEST KANSAS  
 
CITY SKY/WX TMP DP RH WIND PRES REMARKS
 
GOODLAND SUNNY 82 57 42 N14 30.10R  
6HR MIN TEMP: 59; 6HR MAX TEMP: 82;  
 
HAYS SUNNY 86 63 45 W16 30.00F  
HILL CITY SUNNY 84 66 54 NW8 30.01S  
6HR MIN TEMP: 63; 6HR MAX TEMP: 84;  
 
RUSSELL SUNNY 85 62 46 SW20G28 29.99F  
6HR MIN TEMP: 64; 6HR MAX TEMP: 85;  
 

 
 
KSZ061>065-074>080-084>089-181900-  
SOUTHWEST KANSAS  
 
CITY SKY/WX TMP DP RH WIND PRES REMARKS
 
DODGE CITY SUNNY 87 57 35 SW17G24 30.03F  
6HR MIN TEMP: 66; 6HR MAX TEMP: 88;  
 
GARDEN CITY SUNNY 83 62 49 SW20G25 30.04F  
6HR MIN TEMP: 60; 6HR MAX TEMP: 83;  
 
GREAT BEND SUNNY 85 65 51 SW8 30.00F  
LIBERAL SUNNY 82 65 56 SW14 30.08F  
PRATT SUNNY 91 55 29 SW10G17 30.00F  
6HR MIN TEMP: 65; 6HR MAX TEMP: 91;  
 

 
 
KSZ066>073-081>083-090>101-181900-  
SOUTHEAST KANSAS  
 
CITY SKY/WX TMP DP RH WIND PRES REMARKS
 
CHANUTE CLOUDY 85 74 69 S13 29.97F  
6HR MIN TEMP: 67; 6HR MAX TEMP: 86;  
 
COFFEYVILLE CLOUDY 83 76 79 S9 29.95F  
6HR MIN TEMP: 70; 6HR MAX TEMP: 86; 6HR PCP: TRACE;  
 
HUTCHINSON SUNNY 82 64 54 SE6 29.99F  
6HR MIN TEMP: 66; 6HR MAX TEMP: 83;  
 
MEDICINE LODGE N/A 88 61 40 VRB5 29.97F  
NEWTON SUNNY 85 67 54 W6 30.00F  
PARSONS CLOUDY 84 76 76 S5 29.98F  
6HR MIN TEMP: 66; 6HR MAX TEMP: 86; 6HR PCP: TRACE;  
 
WICHITA INTL MOSUNNY 88 62 41 NW8 29.97F  
6HR MIN TEMP: 68; 6HR MAX TEMP: 88;  
 
WICHITA JABRA SUNNY 85 66 53 VRB5 29.98F  
6HR MIN TEMP: 68; 6HR MAX TEMP: 86;  
 
WICHITA MCCONL SUNNY 87 62 42 NE9 29.97F  
WINFIELD MOSUNNY 83 70 64 VRB6 29.99S  
6HR MIN TEMP: 69; 6HR MAX TEMP: 83;  
 

 
 
KSZ007>012-019>026-033>040-048>060-102>105-181900-  
NORTHEAST KANSAS  
 
CITY SKY/WX TMP DP RH WIND PRES REMARKS
 
CONCORDIA SUNNY 84 64 50 W10 29.96F  
6HR MIN TEMP: 63; 6HR MAX TEMP: 84;  
 
EMPORIA SUNNY 85 66 53 VRB3 29.97F  
6HR MIN TEMP: 66; 6HR MAX TEMP: 85;  
 
LAWRENCE SUNNY 85 68 56 S9 29.94F  
6HR MIN TEMP: 62; 6HR MAX TEMP: 85;  
 
MANHATTAN SUNNY 86 67 52 W7 29.95F  
6HR MIN TEMP: 68; 6HR MAX TEMP: 86;  
 
MARYSVILLE SUNNY 90 61 37 W10G16 29.94F  
OLATHE IND CLOUDY 81 66 60 SW7 29.97F  
6HR MIN TEMP: 64; 6HR MAX TEMP: 81;  
 
OLATHE EXE CLOUDY 78 65 63 SW7 29.97F  
6HR MIN TEMP: 62; 6HR MAX TEMP: 78; 6HR PCP: TRACE;  
 
SALINA SUNNY 90 61 37 W12 29.97F  
6HR MIN TEMP: 68; 6HR MAX TEMP: 90;  
 
TOPEKA BILLARD SUNNY 88 66 48 VRB6G18 29.94F  
6HR MIN TEMP: 64; 6HR MAX TEMP: 88;  
 
TOPEKA FORBES SUNNY 87 67 51 SW9 29.95F  
6HR MIN TEMP: 66; 6HR MAX TEMP: 87;  
 

 
 
 
CLICK HERE TO GO TO PREVIOUS BULLETINS.

The Nexlab KS Page Main Text Page